This is the latest recevied weather packets stored in our database for station/object N3WXO-1. If no packets are shown the sender has not sent any weather packets the latest 10 day(s).
| Time | Temp. | Humidity | Pressure | Rain* | Wind** | Luminosity | Snow |
|---|---|---|---|---|---|---|---|
| 1777154719 | 5.56° C | 95% | 1015.6 hPa | 3.56 mm | - | 9 W/m² | - |
| 1777154420 | 5.56° C | 95% | 1015.5 hPa | 3.56 mm | - | 11 W/m² | - |
| 1777154131 | 5.56° C | 95% | 1015.4 hPa | 3.56 mm | - | 12 W/m² | - |
| 1777153834 | 5.56° C | 95% | 1015.3 hPa | 3.3 mm | - | 9 W/m² | - |
| 1777153522 | 5.56° C | 95% | 1015.3 hPa | 3.05 mm | - | 5 W/m² | - |
| 1777153221 | 6.11° C | 95% | 1015.2 hPa | 3.05 mm | - | 5 W/m² | - |
| 1777152917 | 6.11° C | 95% | 1014.9 hPa | 3.05 mm | - | 5 W/m² | - |
| 1777152633 | 6.11° C | 95% | 1014.9 hPa | 2.79 mm | - | 5 W/m² | - |
| 1777152322 | 5.56° C | 95% | 1014.5 hPa | 2.79 mm | - | 7 W/m² | - |
| 1777152019 | 5.56° C | 95% | 1014.3 hPa | 2.79 mm | - | 9 W/m² | - |
| 1777151731 | 6.11° C | 95% | 1014.2 hPa | 3.05 mm | - | 14 W/m² | - |
| 1777151434 | 6.11° C | 95% | 1014 hPa | 3.05 mm | - | 18 W/m² | - |
| 1777151125 | 6.11° C | 95% | 1014 hPa | 3.3 mm | - | 14 W/m² | - |
| 1777150835 | 6.11° C | 95% | 1013.9 hPa | 3.3 mm | - | 18 W/m² | - |
| 1777150523 | 6.11° C | 95% | 1014.1 hPa | 3.3 mm | - | 25 W/m² | - |
| 1777150216 | 6.11° C | 95% | 1014.1 hPa | 3.05 mm | - | 18 W/m² | - |
| 1777149928 | 6.11° C | 95% | 1014.2 hPa | 3.56 mm | - | 18 W/m² | - |
| 1777149639 | 6.11° C | 95% | 1014.5 hPa | 3.3 mm | - | 14 W/m² | - |
| 1777149326 | 6.11° C | 95% | 1014.4 hPa | 3.56 mm | - | 12 W/m² | - |
| 1777149023 | 6.11° C | 95% | 1014.3 hPa | 3.56 mm | - | 14 W/m² | - |
| 1777148716 | 6.11° C | 95% | 1014.4 hPa | 3.3 mm | - | 16 W/m² | - |
| 1777148425 | 6.11° C | 94% | 1014.4 hPa | 3.3 mm | - | 21 W/m² | - |
| 1777148135 | 6.11° C | 94% | 1014.5 hPa | 3.3 mm | - | 26 W/m² | - |
| 1777147820 | 6.11° C | 94% | 1014.7 hPa | 3.05 mm | - | 28 W/m² | - |
| 1777147527 | 6.11° C | 94% | 1014.5 hPa | 3.05 mm | - | 32 W/m² | - |
* Rain latest hour (hover to see other rain measurements)
** Current wind speed in m/s (hover to see current wind gust speed)